Starlink 30496

operational
NORAD ID: 57919 Int'l Des: 2023-147 Owner: SPXS Country: US Constellation: starlink
LEOCIRCULAR

Über Starlink 30496

Beschreibung wird geladen...

Live-Position

3D-Globus wird geladen...

Nächste Überflüge

Höhenverlauf

Altitude vs Time

uPlot chart will show altitude changes over time

Zweizeiliger Elementsatz

1 57919U 23147G 25353.43672829 .00000794 00000-0 73810-4 0 9990
2 57919 43.0030 42.3153 0001383 275.9584 84.1101 15.02536668124549
Epoch: 19. Dez. 2025 • Age: 11 hours

Aktueller Status

Höhe 566.2 km
Geschwindigkeit 7.58 km/s
Subsatellitenpunkt -29.78°S, 48.16°W
Startdatum 24. Sept. 2023
Alter 2.2 years
Typ internet

Technische Details

Klassifizierung Payload
Masse 730.00 kg
Trockenmasse 700.00 kg
Gesamtmasse 730.00 kg
Länge 0.30 m
Durchmesser 4.10 m
Spannweite 29.00 m
Form Box + pan
Hersteller SPXS
Bus-Typ Starlink V2M
Phasenstatus In Orbit
Besitzer/Staat SPXS/US

Große Konstellationen

Loading constellations...